Terminal Aerodrome Forecast
Issued by NWS Honolulu, HI

Home | Current Version | Previous Version | Text Only | Print | Product List | Glossary On
Versions: 1 2 3 4 5 6 7 8 9 10 11 12 13 14 15 16 17 18 19 20 21 22 23 24 25 26 27 28 29 30 31 32 33 34 35 36 37 38 39 40 41 42 43 44 45 46 47 48
201
FTPA31 PHFO 151505 AAA
TAFHNL
TAF AMD
PHNL 151505Z 1515/1618 03009G17KT P6SM VCSH FEW025 BKN045
     FM152000 05017G25KT P6SM FEW025 BKN050
     FM160600 02008KT P6SM VCSH SCT025 OVC050
     FM160900 36006KT 5SM -SHRA SCT025 OVC045=

USA.gov is the U.S. government's official web portal to all federal, state and local government web resources and services.